Time,TemperatureF,DewpointF,PressureIn,WindDirection,WindDirectionDegrees,WindSpeedMPH,WindSpeedGustMPH,Humidity,HourlyPrecipIn,Conditions,Clouds,dailyrainin,SoftwareType,DateUTC
2013-06-08 00:28:00,60.5,54.0,29.73,WNW,290,3.0,3.0,79,0.00,,,0.00,Wunderground v.1.15,2013-06-08 07:28:00,
2013-06-08 00:58:00,59.7,53.2,29.72,WNW,294,3.0,5.0,79,0.00,,,0.00,Wunderground v.1.15,2013-06-08 07:58:00,
2013-06-08 01:28:00,59.4,52.9,29.71,WNW,298,2.0,2.0,79,0.00,,,0.00,Wunderground v.1.15,2013-06-08 08:28:00,
2013-06-08 01:58:00,59.1,52.6,29.71,WNW,300,0.0,0.0,79,0.00,,,0.00,Wunderground v.1.15,2013-06-08 08:58:00,
2013-06-08 02:28:00,58.1,52.6,29.72,WNW,300,0.0,0.0,82,0.00,,,0.00,Wunderground v.1.15,2013-06-08 09:28:00,
2013-06-08 02:58:00,57.8,52.3,29.72,WNW,300,0.0,0.0,82,0.00,,,0.00,Wunderground v.1.15,2013-06-08 09:58:00,
2013-06-08 03:28:00,57.1,52.3,29.72,WNW,300,0.0,0.0,84,0.00,,,0.00,Wunderground v.1.15,2013-06-08 10:28:00,
2013-06-08 03:58:00,56.5,52.0,29.72,WNW,300,0.0,0.0,85,0.00,,,0.00,Wunderground v.1.15,2013-06-08 10:58:00,
2013-06-08 04:28:00,56.3,52.2,29.71,WNW,300,0.0,0.0,86,0.00,,,0.00,Wunderground v.1.15,2013-06-08 11:28:00,
2013-06-08 04:58:00,55.7,51.9,29.72,WNW,300,0.0,0.0,87,0.00,,,0.00,Wunderground v.1.15,2013-06-08 11:58:00,
2013-06-08 05:28:00,55.3,52.1,29.71,WNW,300,0.0,0.0,89,0.00,,,0.00,Wunderground v.1.15,2013-06-08 12:28:00,
2013-06-08 05:58:00,55.1,51.9,29.72,WNW,300,0.0,0.0,89,0.00,,,0.00,Wunderground v.1.15,2013-06-08 12:58:00,
2013-06-08 06:28:00,56.1,52.9,29.72,WNW,300,1.0,1.0,89,0.00,,,0.00,Wunderground v.1.15,2013-06-08 13:28:00,
2013-06-08 06:58:00,57.6,54.1,29.73,WNW,300,0.0,0.0,88,0.00,,,0.00,Wunderground v.1.15,2013-06-08 13:58:00,
2013-06-08 07:28:00,62.2,55.6,29.73,WSW,243,0.0,0.0,79,0.00,,,0.00,Wunderground v.1.15,2013-06-08 14:28:00,
2013-06-08 07:58:00,63.2,55.5,29.73,ESE,103,1.0,1.0,76,0.00,,,0.00,Wunderground v.1.15,2013-06-08 14:58:00,
2013-06-08 08:28:00,66.0,56.3,29.73,SSE,153,1.0,1.0,71,0.00,,,0.00,Wunderground v.1.15,2013-06-08 15:28:00,
2013-06-08 08:58:00,68.4,56.2,29.73,SSE,148,1.0,1.0,65,0.00,,,0.00,Wunderground v.1.15,2013-06-08 15:58:00,
2013-06-08 09:28:00,71.2,56.6,29.73,SE,145,2.0,2.0,60,0.00,,,0.00,Wunderground v.1.15,2013-06-08 16:28:00,
2013-06-08 09:58:00,74.3,57.6,29.73,South,171,2.0,4.0,56,0.00,,,0.00,Wunderground v.1.15,2013-06-08 16:58:00,
2013-06-08 10:28:00,76.2,58.3,29.72,SE,141,2.0,3.0,54,0.00,,,0.00,Wunderground v.1.15,2013-06-08 17:28:00,
2013-06-08 10:58:00,78.9,59.2,29.72,SE,137,3.0,3.0,51,0.00,,,0.00,Wunderground v.1.15,2013-06-08 17:58:00,
2013-06-08 11:28:00,81.7,61.2,29.71,SE,143,3.0,3.0,50,0.00,,,0.00,Wunderground v.1.15,2013-06-08 18:28:00,
2013-06-08 11:58:00,83.1,62.0,29.71,South,177,3.0,3.0,49,0.00,,,0.00,Wunderground v.1.15,2013-06-08 18:58:00,
2013-06-08 12:28:00,85.5,63.0,29.70,SE,146,3.0,3.0,47,0.00,,,0.00,Wunderground v.1.15,2013-06-08 19:28:00,
2013-06-08 12:58:00,85.7,62.5,29.70,SSE,161,3.0,3.0,46,0.00,,,0.00,Wunderground v.1.15,2013-06-08 19:58:00,
2013-06-08 13:28:00,86.6,62.1,29.70,SSW,200,3.0,3.0,44,0.00,,,0.00,Wunderground v.1.15,2013-06-08 20:28:00,
2013-06-08 13:58:00,89.9,63.0,29.69,WNW,288,2.0,4.0,41,0.00,,,0.00,Wunderground v.1.15,2013-06-08 20:58:00,
2013-06-08 14:28:00,87.5,60.9,29.68,NW,307,11.0,13.0,41,0.00,,,0.00,Wunderground v.1.15,2013-06-08 21:28:00,
2013-06-08 14:58:00,83.8,59.6,29.69,West,274,13.0,13.0,44,0.00,,,0.00,Wunderground v.1.15,2013-06-08 21:58:00,
2013-06-08 15:28:00,82.0,57.3,29.69,NW,305,13.0,13.0,43,0.00,,,0.00,Wunderground v.1.15,2013-06-08 22:28:00,
2013-06-08 15:58:00,81.2,55.9,29.69,NW,306,11.0,11.0,42,0.00,,,0.00,Wunderground v.1.15,2013-06-08 22:58:00,
2013-06-08 16:28:00,79.7,55.2,29.69,NW,307,10.0,10.0,43,0.00,,,0.00,Wunderground v.1.15,2013-06-08 23:28:00,
2013-06-08 16:58:00,78.2,54.5,29.69,West,270,9.0,11.0,44,0.00,,,0.00,Wunderground v.1.15,2013-06-08 23:58:00,
2013-06-08 17:28:00,75.8,54.1,29.70,NW,314,10.0,10.0,47,0.00,,,0.00,Wunderground v.1.15,2013-06-09 00:28:00,
2013-06-08 17:58:00,72.3,53.2,29.69,WNW,289,13.0,18.0,51,0.00,,,0.00,Wunderground v.1.15,2013-06-09 00:58:00,
2013-06-08 18:28:00,68.7,52.4,29.70,WNW,292,13.0,14.0,56,0.00,,,0.00,Wunderground v.1.15,2013-06-09 01:28:00,
2013-06-08 18:58:00,65.8,52.0,29.71,WNW,294,11.0,11.0,61,0.00,,,0.00,Wunderground v.1.15,2013-06-09 01:58:00,
2013-06-08 19:28:00,62.2,51.5,29.73,NW,309,10.0,10.0,68,0.00,,,0.00,Wunderground v.1.15,2013-06-09 02:28:00,
2013-06-08 19:58:00,59.7,51.0,29.74,West,279,9.0,9.0,73,0.00,,,0.00,Wunderground v.1.15,2013-06-09 02:58:00,
2013-06-08 20:28:00,58.0,50.8,29.75,West,280,10.0,10.0,77,0.00,,,0.00,Wunderground v.1.15,2013-06-09 03:28:00,
2013-06-08 20:58:00,56.6,50.5,29.76,WNW,287,9.0,9.0,80,0.00,,,0.00,Wunderground v.1.15,2013-06-09 03:58:00,
2013-06-08 21:28:00,55.9,50.8,29.77,WNW,301,8.0,8.0,83,0.00,,,0.00,Wunderground v.1.15,2013-06-09 04:28:00,
2013-06-08 21:58:00,56.7,50.9,29.78,NW,305,6.0,9.0,81,0.00,,,0.00,Wunderground v.1.15,2013-06-09 04:58:00,
2013-06-08 22:28:00,56.5,51.1,29.79,WNW,300,2.0,2.0,82,0.00,,,0.00,Wunderground v.1.15,2013-06-09 05:28:00,
2013-06-08 22:58:00,55.8,51.4,29.80,North,359,1.0,5.0,85,0.00,,,0.00,Wunderground v.1.15,2013-06-09 05:58:00,
2013-06-08 23:28:00,55.6,51.2,29.80,North,353,4.0,6.0,85,0.00,,,0.00,Wunderground v.1.15,2013-06-09 06:28:00,
2013-06-08 23:58:00,55.2,51.1,29.80,NNE,14,4.0,4.0,86,0.00,,,0.00,Wunderground v.1.15,2013-06-09 06:58:00,